TJS-10

Last updated on Sun Jan 18 2026 00:02:50 GMT+0000 (Coordinated Universal Time)

1 58204U 23169A 26017.77748330 .00000017 00000+0 00000+0 0 9991 2 58204 2.1556 82.3697 0005628 180.4528 307.3005 1.00274769 8039
UTC large
Height (km)
Speed (km/s)
/
Latitude / Longitude
Inclination (degrees)
Orbital Period (minutes)
Azimuth
Elevation
Range (km)
Doppler Factor

Next 0 passes for location: London (51.5072 / 0.1276)

Sorry there are no passes over London.